Weather in Rusanivka

Ukraine / Sumi District     50°30′29″N   33°44′23″E
temp.,
°C
wind,
m/s
gust,
m/s
humid.,
%
clouds,
%
prec.,
mm/h
press.,
hPa
HPBL,
m
23 october, sat
sat2300:00+10wsw395493 0.0 1013206
03:00+9sw366343 0.0 101389
06:00+7sw410714 0.0 1013189
09:00+9wsw511721 0.0 1014468
12:00+12w8114415 0.0 10151343
15:00+12w8114558 0.0 10152035
18:00+8nw49565 0.0 1017241
21:00+5w35645 0.0 101976
24 october, sun
sun2400:00+4w38705 0.0 1020178
03:00+3w377689 0.0 1020155
06:00+4wsw4872100 0.0 1020252
09:00+5w4872100 0.1 1021341
12:00+8wnw686182 0.1 10221224
15:00+7nw796388 0.4 10221178
18:00+5nw61074100 0.1 10241106
21:00+4nw61062100 0.1 10261054
25 october, mon
mon2500:00+2nnw5107570 0.1 1028446
03:000nnw410755 0.1 1029328
06:00−1nnw38835 0.0 1031209
09:000n47775 0.0 1032293
12:00+4n45525 0.0 1033837
15:00+6nnw34430 0.0 1033997
18:00+3nnw22570 0.0 103315
21:00+1nnw11643 0.0 103410
26 october, tue
tue2600:000s22660 0.0 103410
03:000ssw22693 0.0 103419
06:00−1ssw33715 0.0 103426
09:00+1s35615 0.0 1033155
12:00+7ssw56405 0.0 1032612
15:00+9ssw56335 0.0 1030820
18:00+4ssw35475 0.0 103063
21:00+3s48480 0.0 1029113
27 october, wed
wed2700:00+2ssw48474 0.0 1029133
03:00+1ssw3856100 0.0 1028126
06:00+1ssw4959100 0.0 1027147
09:00+2ssw4954100 0.0 1027257
12:00+7sw6850100 0.0 1025516
15:00+8sw5842100 0.0 1023621
18:00+5sw3854100 0.0 1023179
21:00+3wsw3771100 0.0 1023109